[[{"header":{"parameterUnit":"m.s-1","parameterCategory":1,"la1":30.2992,"la2":30.254,"lo1":-89.0895,"lo2":-89.0443,"dy":0.0025,"dx":0.0025,"nx":19,"ny":19,"refTime":"2026-04-22T09:00:00:Z","depth":0,"parameterNumber":2,"parameterNumberName":"U-component_of_WINDS"},"data":[0,0,0,-3.737,-3.7373,-3.7455,-3.7455,-3.7582,-3.7583,0,0,0,0,0,0,0,0,0,0,0,-3.7362,-3.7363,-3.737,-3.7373,-3.7455,-3.7455,-3.7582,-3.7583,0,0,0,0,0,0,0,0,0,0,0,-3.7361,-3.7363,-3.7364,-3.7373,-3.7455,-3.7455,-3.7581,-3.7511,0,0,0,0,0,0,0,0,0,0,-3.7428,-3.7435,-3.7362,-3.7364,-3.7374,-3.7455,-3.7455,-3.7507,-3.7516,-3.7555,0,-3.7596,0,-3.7592,-3.7594,-3.7594,0,0,0,-3.7361,-3.7428,-3.7437,-3.7365,-3.7375,-3.7455,-3.7414,-3.7512,-3.7521,-3.7566,-3.7598,-3.7602,-3.7594,-3.7594,-3.7595,-3.7867,-3.7869,0,0,-3.7356,-3.7384,-3.743,-3.7444,-3.7434,-3.7412,-3.7417,-3.7517,-3.7552,-3.7598,-3.7604,-3.7596,-3.7596,-3.7597,-3.7865,-3.7867,0,0,0,-3.7351,-3.7382,-3.7387,-3.7439,-3.7452,-3.7414,-3.742,-3.7548,-3.7547,-3.7605,-3.7598,-3.7596,-3.7598,-3.7863,-3.7866,-3.7983,0,0,0,-3.7348,-3.7379,-3.7386,-3.7404,-3.7451,-3.7502,-3.745,-3.754,-3.7551,-3.7597,-3.7596,-3.76,-3.7861,-3.7865,-3.7976,-3.8033,0,0,0,-3.7351,-3.7379,-3.7396,-3.7405,-3.7441,-3.7499,-3.7504,-3.7542,-3.7547,-3.7594,-3.76,-3.786,-3.7864,-3.7969,-3.8022,-3.8112,0,0,0,-3.7362,-3.7499,-3.7399,-3.7549,-3.7441,-3.7572,-3.7503,-3.7599,-3.7654,-3.7597,-3.7861,-3.7866,-3.7967,-3.8015,-3.8105,-3.8192,-3.8231,0,0,-3.7551,-3.7523,-3.7609,-3.7522,-3.7678,-3.7558,-3.7731,-3.7753,-3.7732,-3.7823,-3.7829,-3.7978,-3.8021,-3.8111,-3.8445,-3.8476,0,0,0,-3.7678,-3.7741,-3.7776,-3.783,-3.7853,-3.7875,-3.7869,-3.7877,-3.7953,-3.7785,-3.8035,-3.806,-3.8111,-3.8151,-3.8178,-3.8219,-3.7886,-3.7886,-3.7885,-3.7985,-3.7951,-3.8091,-3.8067,-3.812,-3.8113,-3.8152,-3.8162,-3.8111,-3.8171,-3.8197,-3.8404,-3.8452,-3.8472,-3.8516,-3.8242,-3.8242,-3.8243,-3.8243,-3.8257,-3.8339,-3.827,-3.838,-3.8343,-3.8435,-3.8433,-3.8395,-3.8474,-3.8382,-3.8425,-3.8326,-3.8508,-3.8544,-3.8251,-3.825,-3.8249,-3.8248,-3.8247,-3.8452,-3.8485,-3.8494,-3.8569,-3.863,-3.86,-3.868,-3.8643,-3.8609,-3.8652,-3.8675,-3.8673,-3.8664,-3.8666,-3.8667,-3.8667,-3.8668,-3.8669,-3.8669,-3.865,-3.8656,-3.8728,-3.8764,-3.8794,-3.8828,-3.8822,-3.885,-3.8871,-3.8837,-3.8837,-3.878,-3.8533,-3.847,-3.868,-3.8678,-3.8677,-3.8676,-3.8675,-3.8935,-3.8865,-3.8976,-3.9006,-3.9044,-3.9107,-3.906,-3.9119,-3.9137,-3.9177,-3.9111,-3.8935,-3.8903,-3.8881,-3.8829,-3.9119,-3.9119,-3.9119,-3.9119,-3.9098,-3.9079,-3.9184,-3.9235,-3.928,-3.9249,-3.9374,-3.9371,-3.9356,-3.9365,-3.9318,-3.9246,-3.9226,-3.9206,-3.9178,-3.9128,-3.9488,-3.9488,-3.9488,-3.927,-3.9254,-3.9368,-3.9355,-3.9382,-3.9406,-3.9522,-3.9581,-3.955,-3.9502,-3.937,-3.9355,-3.9239,-3.9203,-3.915,-3.9107,-3.9015,0,0]},{"header":{"parameterUnit":"m.s-1","parameterCategory":1,"la1":30.2992,"la2":30.254,"lo1":-89.0895,"lo2":-89.0443,"dy":0.0025,"dx":0.0025,"nx":19,"ny":19,"refTime":"2026-04-22T09:00:00:Z","depth":0,"parameterNumber":3,"parameterNumberName":"V-component_of_WINDS"},"data":[0,0,0,1.279,1.2788,1.2677,1.2676,1.257,1.2569,0,0,0,0,0,0,0,0,0,0,0,1.2847,1.2847,1.279,1.2788,1.2677,1.2676,1.257,1.2569,0,0,0,0,0,0,0,0,0,0,0,1.2847,1.2847,1.2847,1.2787,1.2677,1.2676,1.257,1.264,0,0,0,0,0,0,0,0,0,0,1.2742,1.2819,1.2847,1.2847,1.2787,1.2677,1.2676,1.2643,1.2636,1.2636,0,1.2646,0,1.2606,1.2564,1.2564,0,0,0,1.2768,1.2826,1.2774,1.2847,1.2786,1.2677,1.2721,1.2638,1.2631,1.2627,1.2644,1.2639,1.2605,1.2564,1.2564,1.2638,1.264,0,0,1.2775,1.2839,1.278,1.277,1.2793,1.2725,1.2718,1.2633,1.2654,1.2643,1.2636,1.2603,1.2563,1.2563,1.2637,1.2639,0,0,0,1.2805,1.2845,1.2794,1.2776,1.2753,1.2722,1.2714,1.2658,1.2636,1.2634,1.2602,1.2563,1.2562,1.2636,1.2638,1.2764,0,0,0,1.2808,1.2862,1.2798,1.2836,1.2756,1.2705,1.2742,1.2642,1.2631,1.2602,1.2563,1.2562,1.2634,1.2637,1.2758,1.2813,0,0,0,1.2846,1.2866,1.2859,1.284,1.2795,1.2705,1.2677,1.2638,1.2612,1.2564,1.2561,1.2633,1.2636,1.2752,1.2803,1.2852,0,0,0,1.2904,1.2971,1.2862,1.2924,1.2796,1.2785,1.2677,1.2664,1.2639,1.2563,1.2634,1.2637,1.275,1.2797,1.2847,1.2906,1.2937,0,0,1.3024,1.2988,1.3019,1.2918,1.2944,1.2797,1.2839,1.2752,1.2686,1.2657,1.2658,1.276,1.2802,1.2851,1.3088,1.3114,0,0,0,1.3079,1.3103,1.3095,1.3076,1.3014,1.2964,1.2865,1.2832,1.2806,1.2686,1.2789,1.2812,1.2838,1.2863,1.2885,1.2903,1.2652,1.2652,1.2651,1.3341,1.3257,1.3303,1.3206,1.3189,1.3087,1.3064,1.3003,1.2919,1.2946,1.2937,1.3091,1.3124,1.3139,1.316,1.2961,1.2962,1.2962,1.2962,1.351,1.353,1.3422,1.3428,1.3338,1.3341,1.3246,1.3188,1.3176,1.3091,1.3109,1.3024,1.317,1.3183,1.2971,1.2969,1.2968,1.2967,1.2967,1.3673,1.3668,1.363,1.3595,1.3576,1.3474,1.347,1.3386,1.3307,1.3326,1.3307,1.3305,1.3292,1.3323,1.3324,1.3324,1.3324,1.3325,1.3325,1.3856,1.381,1.3818,1.376,1.3737,1.3696,1.3596,1.357,1.3521,1.346,1.3459,1.3375,1.32,1.3159,1.3333,1.3332,1.3331,1.333,1.3329,1.4059,1.4,1.4013,1.3991,1.3916,1.3904,1.3799,1.3754,1.3721,1.3721,1.3633,1.3518,1.3473,1.3455,1.342,1.3651,1.3651,1.3651,1.3651,1.4196,1.4167,1.4161,1.4132,1.4093,1.4,1.4016,1.3939,1.3849,1.3823,1.3777,1.3723,1.3709,1.3672,1.365,1.3616,1.3892,1.3892,1.3892,1.4316,1.4279,1.431,1.4225,1.416,1.4107,1.4119,1.4087,1.3973,1.39,1.3801,1.3791,1.3702,1.3678,1.3603,1.357,1.3506,0,0]}]]